EN

Hourly Weather Allanton

Today, 26 January, Tuesday

Time Temperature Precipitation Wind Pressure Humidity
00:00 -1°C° 0 mm 5 mps 751 mmHg 93%
01:00 -1°C° 0.2 mm 4 mps 752 mmHg 94%
02:00 -1°C° 0.2 mm 4 mps 752 mmHg 94%
03:00 -1°C° 0.2 mm 4 mps 752 mmHg 94%
04:00 -1°C° 0.1 mm 4 mps 752 mmHg 93%
05:00 -1°C° 0.1 mm 4 mps 752 mmHg 92%
06:00 -2°C° 0.1 mm 4 mps 752 mmHg 91%
07:00 0°C° 0 mm 3 mps 752 mmHg 91%
08:00 +1°C° 0 mm 2 mps 752 mmHg 91%
09:00 +1°C° 0 mm 2 mps 752 mmHg 91%
10:00 +2°C° 0 mm 2 mps 751 mmHg 89%
11:00 +2°C° 0 mm 2 mps 751 mmHg 87%
12:00 +3°C° 0 mm 2 mps 751 mmHg 85%
13:00 +2°C° 0.5 mm 3 mps 750 mmHg 89%
14:00 +2°C° 0.5 mm 3 mps 750 mmHg 93%
15:00 0°C° 0.5 mm 4 mps 749 mmHg 97%
16:00 0°C° 0.5 mm 4 mps 749 mmHg 97%
17:00 0°C° 0.5 mm 4 mps 748 mmHg 98%
18:00 0°C° 0.5 mm 5 mps 748 mmHg 98%
19:00 0°C° 0.1 mm 4 mps 747 mmHg 98%
20:00 0°C° 0.1 mm 4 mps 747 mmHg 98%
21:00 +1°C° 0.1 mm 3 mps 747 mmHg 97%
22:00 +1°C° 0.1 mm 4 mps 747 mmHg 96%
23:00 +3°C° 0.1 mm 4 mps 747 mmHg 95%

Tomorrow, 27 January, Wednesday

Time Temperature Precipitation Wind Pressure Humidity
00:00 +3°C° 0.1 mm 5 mps 747 mmHg 94%
01:00 +4°C° 0 mm 4 mps 747 mmHg 94%
02:00 +4°C° 0 mm 4 mps 747 mmHg 94%
03:00 +3°C° 0 mm 4 mps 747 mmHg 95%
04:00 +3°C° 0.2 mm 4 mps 747 mmHg 96%
05:00 +3°C° 0.2 mm 3 mps 748 mmHg 96%
06:00 +3°C° 0.2 mm 3 mps 748 mmHg 97%
07:00 +3°C° 0.5 mm 3 mps 749 mmHg 97%
08:00 +1°C° 0.5 mm 4 mps 749 mmHg 96%
09:00 +1°C° 0.5 mm 4 mps 750 mmHg 96%
10:00 +1°C° 0.2 mm 4 mps 751 mmHg 96%
11:00 +1°C° 0.2 mm 4 mps 752 mmHg 95%
12:00 +1°C° 0.2 mm 4 mps 752 mmHg 94%
13:00 +1°C° 0 mm 4 mps 753 mmHg 91%
14:00 +1°C° 0 mm 4 mps 753 mmHg 89%
15:00 +1°C° 0 mm 4 mps 753 mmHg 86%
16:00 0°C° 0 mm 4 mps 753 mmHg 86%
17:00 0°C° 0 mm 3 mps 754 mmHg 86%
18:00 0°C° 0 mm 3 mps 754 mmHg 86%
19:00 -1°C° 0 mm 3 mps 754 mmHg 85%
20:00 -1°C° 0 mm 2 mps 754 mmHg 84%
21:00 -1°C° 0 mm 2 mps 754 mmHg 83%
22:00 -1°C° 0 mm 3 mps 753 mmHg 83%
23:00 0°C° 0 mm 3 mps 752 mmHg 82%

Day after tomorrow, 28 January, Thursday

Time Temperature Precipitation Wind Pressure Humidity
00:00 0°C° 0 mm 3 mps 752 mmHg 82%
01:00 -1°C° 0 mm 4 mps 751 mmHg 81%
02:00 -1°C° 0 mm 5 mps 750 mmHg 80%
03:00 0°C° 0 mm 5 mps 749 mmHg 79%
04:00 -1°C° 0.2 mm 6 mps 748 mmHg 83%
05:00 -1°C° 0.2 mm 6 mps 747 mmHg 87%
06:00 -2°C° 0.2 mm 7 mps 746 mmHg 91%
07:00 -2°C° 0.6 mm 7 mps 746 mmHg 93%
08:00 -2°C° 0.6 mm 7 mps 745 mmHg 95%
09:00 -2°C° 0.6 mm 7 mps 745 mmHg 96%
10:00 -2°C° 0.5 mm 7 mps 745 mmHg 97%
11:00 -2°C° 0.5 mm 7 mps 745 mmHg 97%
12:00 -2°C° 0.5 mm 7 mps 745 mmHg 97%
13:00 -2°C° 0.8 mm 7 mps 744 mmHg 98%
14:00 -2°C° 0.8 mm 7 mps 744 mmHg 98%
15:00 -2°C° 0.8 mm 6 mps 744 mmHg 98%
16:00 -1°C° 0.6 mm 6 mps 743 mmHg 98%
17:00 -1°C° 0.6 mm 6 mps 743 mmHg 98%
18:00 -1°C° 0.6 mm 6 mps 743 mmHg 98%
19:00 -1°C° 0.5 mm 6 mps 743 mmHg 98%
20:00 +1°C° 0.5 mm 6 mps 743 mmHg 98%
21:00 +1°C° 0.5 mm 6 mps 743 mmHg 98%
22:00 +1°C° 0.3 mm 5 mps 743 mmHg 98%
23:00 +1°C° 0.3 mm 5 mps 743 mmHg 98%

29 January, Friday

Time Temperature Precipitation Wind Pressure Humidity
00:00 +1°C° 0.3 mm 4 mps 743 mmHg 98%
01:00 +1°C° 0.2 mm 4 mps 743 mmHg 98%
02:00 +1°C° 0.2 mm 4 mps 743 mmHg 98%
03:00 +1°C° 0.2 mm 4 mps 743 mmHg 98%
04:00 +1°C° 0.5 mm 4 mps 744 mmHg 98%
05:00 +1°C° 0.5 mm 4 mps 744 mmHg 98%
06:00 +1°C° 0.5 mm 4 mps 744 mmHg 98%
07:00 +1°C° 0.7 mm 4 mps 744 mmHg 98%
08:00 +1°C° 0.7 mm 4 mps 745 mmHg 98%
09:00 +2°C° 0.7 mm 3 mps 745 mmHg 98%
10:00 +2°C° 0.3 mm 3 mps 745 mmHg 98%
11:00 +2°C° 0.3 mm 3 mps 746 mmHg 98%
12:00 +2°C° 0.3 mm 3 mps 746 mmHg 98%
13:00 +3°C° 0.1 mm 2 mps 746 mmHg 98%
14:00 +3°C° 0.1 mm 2 mps 747 mmHg 98%
15:00 +3°C° 0.1 mm 2 mps 747 mmHg 98%
16:00 +3°C° 0.1 mm 2 mps 747 mmHg 98%
17:00 +4°C° 0.1 mm 1 mps 748 mmHg 98%
18:00 +4°C° 0.1 mm 1 mps 748 mmHg 98%
19:00 +3°C° 0.1 mm 2 mps 748 mmHg 97%
20:00 +3°C° 0.1 mm 2 mps 748 mmHg 97%
21:00 +3°C° 0.1 mm 2 mps 748 mmHg 97%
22:00 +2°C° 0 mm 2 mps 749 mmHg 97%
23:00 +2°C° 0 mm 2 mps 749 mmHg 96%

30 January, Saturday

Time Temperature Precipitation Wind Pressure Humidity
00:00 +2°C° 0 mm 2 mps 749 mmHg 96%
01:00 +2°C° 0 mm 2 mps 749 mmHg 96%
02:00 +2°C° 0 mm 2 mps 749 mmHg 96%
03:00 +2°C° 0 mm 2 mps 749 mmHg 96%
04:00 +2°C° 0 mm 2 mps 749 mmHg 96%
05:00 +2°C° 0 mm 2 mps 749 mmHg 96%
06:00 +2°C° 0 mm 2 mps 749 mmHg 96%
07:00 +2°C° 0 mm 2 mps 749 mmHg 96%
08:00 +3°C° 0 mm 2 mps 749 mmHg 96%
09:00 +3°C° 0 mm 2 mps 749 mmHg 96%
10:00 +3°C° 0 mm 2 mps 749 mmHg 96%
11:00 +3°C° 0 mm 2 mps 749 mmHg 95%
12:00 +4°C° 0 mm 2 mps 749 mmHg 95%
13:00 +4°C° 0 mm 2 mps 749 mmHg 95%
14:00 +4°C° 0 mm 2 mps 749 mmHg 95%
15:00 +4°C° 0 mm 2 mps 749 mmHg 95%
16:00 +3°C° 0 mm 2 mps 748 mmHg 95%
17:00 +3°C° 0 mm 2 mps 748 mmHg 95%
18:00 +2°C° 0 mm 2 mps 748 mmHg 95%
19:00 +1°C° 0 mm 3 mps 748 mmHg 95%
20:00 +1°C° 0 mm 3 mps 747 mmHg 96%
21:00 +1°C° 0 mm 3 mps 747 mmHg 96%
22:00 0°C° 0 mm 4 mps 746 mmHg 96%
23:00 0°C° 0 mm 4 mps 745 mmHg 96%

31 January, Sunday

Time Temperature Precipitation Wind Pressure Humidity
00:00 +1°C° 0 mm 5 mps 745 mmHg 96%
01:00 +1°C° 0 mm 6 mps 743 mmHg 95%
02:00 0°C° 0 mm 7 mps 742 mmHg 95%
03:00 0°C° 0 mm 8 mps 741 mmHg 95%
04:00 0°C° 0.4 mm 9 mps 740 mmHg 95%
05:00 0°C° 0.4 mm 9 mps 738 mmHg 95%
06:00 0°C° 0.4 mm 10 mps 737 mmHg 96%
07:00 +1°C° 0.7 mm 11 mps 736 mmHg 96%
08:00 +1°C° 0.7 mm 11 mps 735 mmHg 96%
09:00 +1°C° 0.7 mm 11 mps 734 mmHg 96%
10:00 0°C° 1.2 mm 12 mps 733 mmHg 95%
11:00 +2°C° 1.2 mm 12 mps 733 mmHg 94%
12:00 +2°C° 1.2 mm 12 mps 732 mmHg 94%
13:00 +2°C° 0.8 mm 12 mps 732 mmHg 94%
14:00 +2°C° 0.8 mm 11 mps 731 mmHg 94%
15:00 +2°C° 0.8 mm 11 mps 731 mmHg 94%
16:00 +3°C° 0.5 mm 11 mps 731 mmHg 94%
17:00 +3°C° 0.5 mm 11 mps 732 mmHg 94%
18:00 +3°C° 0.5 mm 11 mps 732 mmHg 94%
19:00 +3°C° 0.6 mm 10 mps 732 mmHg 94%
20:00 +3°C° 0.6 mm 10 mps 732 mmHg 94%
21:00 +3°C° 0.6 mm 10 mps 733 mmHg 94%
22:00 +3°C° 0.8 mm 9 mps 733 mmHg 95%
23:00 +3°C° 0.8 mm 9 mps 733 mmHg 95%
Show more